Location: Home
(42.5358°N, 72.7383°W)
Time: 08:46:18
(UTC-04:00)

A-11 Canister half - Pass Details

Date: 28 June 2022
Orbit: 1514 x 1685 km, 47.2° (Epoch: 15 August)

Event Time Altitude Azimuth Distance (km) Brightness Sun altitude
Rises 22:06:15 0° 207° (SSW) 4,919 11.4 -13.7°
Reaches altitude 10° 22:09:40 10° 200° (SSW) 3,938 10.8 -14.1°
Maximum altitude 22:18:49 40° 135° (SE) 2,309 9.4 -15.1°
Drops below altitude 10° 22:27:52 10° 71° (ENE) 3,911 11.0 -16.1°
Sets 22:31:14 0° 64° (ENE) 4,881 11.6 -16.4°
